Regional Weather Roundup
Issued by NWS

Home | Current Version | Previous Version | Text Only | Print | Product List | Glossary On
Versions: 1 2 3 4 5 6 7 8 9 10 11 12 13 14 15 16 17 18 19 20 21 22 23 24 25 26 27 28 29 30 31 32 33 34 35 36 37 38 39 40 41 42 43 44 45 46 47 48 49 50
000
ASUS43 KFSD 171410
RWRSD

WEATHER ROUNDUP FOR SOUTH DAKOTA
NATIONAL WEATHER SERVICE SIOUX FALLS SD
900 AM CDT WED SEP 17 2014

NOTE: "FAIR" INDICATES FEW OR NO CLOUDS BELOW 12,000 FEET WITH NO
SIGNIFICANT WEATHER AND/OR OBSTRUCTIONS TO VISIBILITY.


SDZ001>005-009-010-012>017-171500-
NORTHWEST AND NORTH CENTRAL SOUTH DAKOTA

CITY           SKY/WX    TMP DP  RH WIND       PRES   REMARKS
BUFFALO          N/A     53  47  79 NE8       29.90S
FAITH            N/A     52  49  89 N3        29.95R
MOBRIDGE       SUNNY     55  51  86 N3        29.93R
$$

SDZ012>016-024>037-041>051-057-063-072>074-171500-
SOUTHWEST AND SOUTH CENTRAL SOUTH DAKOTA

CITY           SKY/WX    TMP DP  RH WIND       PRES   REMARKS
RAPID CTY ARPT SUNNY     61  42  49 NW8       29.97R
PIERRE         SUNNY     54  52  93 NE3       29.91S
CUSTER         CLOUDY    53  37  54 NW6       30.09R
ELLSWORTH AFB  SUNNY     60  46  59 VRB2      29.96S
PHILIP         SUNNY     50  48  93 SW5       29.93R
PINE RIDGE     SUNNY     52  50  93 CALM      29.96R
WINNER         FAIR      58  53  84 CALM      29.92R
$$

SDZ004>011-016>023-039-040-171500-
NORTHEAST SOUTH DAKOTA

CITY           SKY/WX    TMP DP  RH WIND       PRES   REMARKS
ABERDEEN       FOG       47  47 100 N5        29.95R VSB 1/4
WATERTOWN      SUNNY     54  50  86 CALM      29.93S
SISSETON         N/A     55  53  93 CALM      29.92R
$$

SDZ017-020-022-023-036>040-048>070-171500-
SOUTHEAST SOUTH DAKOTA

CITY           SKY/WX    TMP DP  RH WIND       PRES   REMARKS
SIOUX FALLS    MOSUNNY   58  51  78 VRB3      29.93S
HURON          MOSUNNY   53  49  86 CALM      29.92S
CHAMBERLAIN    FOG       51  51 100 CALM      29.93R VSB<1/4
MITCHELL       SUNNY     54  52  93 SW3       29.93R
YANKTON        SUNNY     54  52  94 CALM      29.92S
$$

ABBREVIATIONS USED IN REMARKS
   TC - TEMPERATURE IN CELSIUS
  WCI - WIND CHILL INDEX
   HX - HEAT INDEX
  VSB - VISIBILITY



USA.gov is the U.S. government's official web portal to all federal, state and local government web resources and services.